• In Russia
  • List of Countries
  • For 7 days
  • Water Temperature
  • Satellite Maps
  • Weather Map
  • Weather Widgets
  • user-avatar
    Login

    Hourly Weather Konstantyna

    Today, 23 March, Saturday

    Time Temperature Precipitation Wind Pressure Humidity
    00:00 +8°C° 0.7 mm 1 mps 711 mmHg 97%
    01:00 +7°C° 0.9 mm 2 mps 711 mmHg 97%
    02:00 +7°C° 0.9 mm 2 mps 711 mmHg 96%
    03:00 +7°C° 0.9 mm 2 mps 711 mmHg 96%
    04:00 +7°C° 1.3 mm 2 mps 711 mmHg 96%
    05:00 +8°C° 1.3 mm 2 mps 711 mmHg 97%
    06:00 +8°C° 1.3 mm 2 mps 712 mmHg 97%
    07:00 +8°C° 0.4 mm 2 mps 712 mmHg 97%
    08:00 +9°C° 0.4 mm 2 mps 712 mmHg 96%
    09:00 +9°C° 0.4 mm 2 mps 713 mmHg 95%
    10:00 +9°C° 0.1 mm 2 mps 713 mmHg 94%
    11:00 +10°C° 0.1 mm 3 mps 713 mmHg 92%
    12:00 +10°C° 0.1 mm 3 mps 713 mmHg 91%
    13:00 +10°C° 0.1 mm 3 mps 713 mmHg 91%
    14:00 +10°C° 0.1 mm 2 mps 713 mmHg 92%
    15:00 +10°C° 0.1 mm 2 mps 713 mmHg 92%
    16:00 +10°C° 0.1 mm 2 mps 713 mmHg 93%
    17:00 +10°C° 0.1 mm 2 mps 713 mmHg 94%
    18:00 +11°C° 0.1 mm 1 mps 713 mmHg 94%
    19:00 +10°C° 0 mm 1 mps 713 mmHg 95%
    20:00 +9°C° 0 mm 1 mps 714 mmHg 96%
    21:00 +8°C° 0 mm 1 mps 714 mmHg 97%
    22:00 +8°C° 0 mm 1 mps 714 mmHg 97%
    23:00 +6°C° 0 mm 0 mps 714 mmHg 97%

    Tomorrow, 24 March, Sunday

    Time Temperature Precipitation Wind Pressure Humidity
    00:00 +6°C° 0 mm 0 mps 714 mmHg 97%
    01:00 +7°C° 0 mm 1 mps 714 mmHg 96%
    02:00 +7°C° 0 mm 1 mps 714 mmHg 95%
    03:00 +7°C° 0 mm 1 mps 713 mmHg 95%
    04:00 +7°C° 0 mm 1 mps 713 mmHg 94%
    05:00 +7°C° 0 mm 1 mps 714 mmHg 93%
    06:00 +7°C° 0 mm 1 mps 714 mmHg 92%
    07:00 +9°C° 0 mm 1 mps 714 mmHg 83%
    08:00 +12°C° 0 mm 1 mps 715 mmHg 74%
    09:00 +14°C° 0 mm 1 mps 715 mmHg 65%
    10:00 +15°C° 0 mm 1 mps 715 mmHg 59%
    11:00 +16°C° 0 mm 1 mps 715 mmHg 54%
    12:00 +18°C° 0 mm 1 mps 715 mmHg 49%
    13:00 +19°C° 0 mm 1 mps 715 mmHg 47%
    14:00 +19°C° 0 mm 1 mps 715 mmHg 46%
    15:00 +19°C° 0 mm 1 mps 714 mmHg 45%
    16:00 +18°C° 0 mm 1 mps 714 mmHg 54%
    17:00 +15°C° 0 mm 1 mps 714 mmHg 63%
    18:00 +13°C° 0 mm 1 mps 713 mmHg 73%
    19:00 +12°C° 0 mm 1 mps 714 mmHg 77%
    20:00 +11°C° 0 mm 1 mps 714 mmHg 80%
    21:00 +9°C° 0 mm 0 mps 714 mmHg 84%
    22:00 +11°C° 0 mm 1 mps 714 mmHg 82%
    23:00 +11°C° 0 mm 1 mps 714 mmHg 80%

    Day after tomorrow, 25 March, Monday

    Time Temperature Precipitation Wind Pressure Humidity
    00:00 +11°C° 0 mm 1 mps 714 mmHg 78%
    01:00 +11°C° 0 mm 1 mps 713 mmHg 76%
    02:00 +11°C° 0 mm 1 mps 713 mmHg 74%
    03:00 +10°C° 0 mm 2 mps 713 mmHg 72%
    04:00 +9°C° 0 mm 2 mps 713 mmHg 72%
    05:00 +9°C° 0 mm 2 mps 713 mmHg 72%
    06:00 +9°C° 0 mm 2 mps 713 mmHg 72%
    07:00 +12°C° 0 mm 2 mps 713 mmHg 66%
    08:00 +14°C° 0 mm 2 mps 714 mmHg 60%
    09:00 +16°C° 0 mm 2 mps 714 mmHg 55%
    10:00 +17°C° 0 mm 2 mps 714 mmHg 52%
    11:00 +18°C° 0 mm 2 mps 714 mmHg 50%
    12:00 +19°C° 0 mm 2 mps 714 mmHg 48%
    13:00 +19°C° 0.2 mm 2 mps 713 mmHg 52%
    14:00 +18°C° 0.2 mm 3 mps 713 mmHg 55%
    15:00 +18°C° 0.2 mm 3 mps 712 mmHg 59%
    16:00 +16°C° 0.3 mm 3 mps 712 mmHg 68%
    17:00 +14°C° 0.3 mm 2 mps 711 mmHg 77%
    18:00 +13°C° 0.3 mm 2 mps 711 mmHg 87%
    19:00 +12°C° 0 mm 1 mps 711 mmHg 88%
    20:00 +11°C° 0 mm 1 mps 712 mmHg 89%
    21:00 +9°C° 0 mm 0 mps 712 mmHg 90%
    22:00 +10°C° 0 mm 1 mps 712 mmHg 90%
    23:00 +10°C° 0 mm 1 mps 712 mmHg 89%

    26 March, Tuesday

    Time Temperature Precipitation Wind Pressure Humidity
    00:00 +10°C° 0 mm 1 mps 711 mmHg 88%
    01:00 +10°C° 0 mm 1 mps 711 mmHg 87%
    02:00 +10°C° 0 mm 1 mps 711 mmHg 87%
    03:00 +9°C° 0 mm 1 mps 711 mmHg 86%
    04:00 +9°C° 0 mm 1 mps 711 mmHg 85%
    05:00 +9°C° 0 mm 0 mps 711 mmHg 85%
    06:00 +9°C° 0 mm 0 mps 711 mmHg 84%
    07:00 +12°C° 0 mm 1 mps 712 mmHg 77%
    08:00 +14°C° 0 mm 1 mps 712 mmHg 70%
    09:00 +16°C° 0 mm 2 mps 713 mmHg 63%
    10:00 +17°C° 0 mm 2 mps 713 mmHg 61%
    11:00 +18°C° 0 mm 3 mps 713 mmHg 59%
    12:00 +18°C° 0 mm 4 mps 713 mmHg 56%
    13:00 +18°C° 0 mm 4 mps 713 mmHg 58%
    14:00 +18°C° 0 mm 4 mps 713 mmHg 59%
    15:00 +16°C° 0 mm 5 mps 712 mmHg 60%
    16:00 +14°C° 0 mm 4 mps 712 mmHg 66%
    17:00 +12°C° 0 mm 3 mps 712 mmHg 73%
    18:00 +10°C° 0 mm 2 mps 712 mmHg 80%
    19:00 +9°C° 0 mm 2 mps 713 mmHg 84%
    20:00 +9°C° 0 mm 1 mps 713 mmHg 88%
    21:00 +8°C° 0 mm 1 mps 714 mmHg 92%
    22:00 +7°C° 0 mm 1 mps 714 mmHg 93%
    23:00 +7°C° 0 mm 1 mps 714 mmHg 94%

    27 March, Wednesday

    Time Temperature Precipitation Wind Pressure Humidity
    00:00 +6°C° 0 mm 1 mps 714 mmHg 95%
    01:00 +6°C° 0 mm 1 mps 714 mmHg 95%
    02:00 +6°C° 0 mm 1 mps 714 mmHg 94%
    03:00 +5°C° 0 mm 1 mps 714 mmHg 94%
    04:00 +5°C° 0 mm 1 mps 714 mmHg 93%
    05:00 +6°C° 0 mm 1 mps 714 mmHg 92%
    06:00 +6°C° 0 mm 1 mps 715 mmHg 91%
    07:00 +7°C° 0 mm 2 mps 715 mmHg 81%
    08:00 +9°C° 0 mm 2 mps 716 mmHg 71%
    09:00 +12°C° 0 mm 2 mps 716 mmHg 62%
    10:00 +13°C° 0 mm 3 mps 716 mmHg 56%
    11:00 +14°C° 0 mm 3 mps 716 mmHg 51%
    12:00 +17°C° 0 mm 3 mps 716 mmHg 45%
    13:00 +17°C° 0 mm 3 mps 716 mmHg 46%
    14:00 +17°C° 0 mm 3 mps 716 mmHg 47%
    15:00 +17°C° 0 mm 4 mps 715 mmHg 48%
    16:00 +14°C° 0 mm 3 mps 715 mmHg 57%
    17:00 +12°C° 0 mm 3 mps 715 mmHg 65%
    18:00 +10°C° 0 mm 2 mps 714 mmHg 74%
    19:00 +10°C° 0 mm 2 mps 714 mmHg 76%
    20:00 +9°C° 0 mm 2 mps 714 mmHg 78%
    21:00 +9°C° 0 mm 2 mps 715 mmHg 81%
    22:00 +8°C° 0 mm 2 mps 714 mmHg 80%
    23:00 +9°C° 0 mm 1 mps 714 mmHg 79%

    28 March, Thursday

    Time Temperature Precipitation Wind Pressure Humidity
    00:00 +9°C° 0 mm 1 mps 714 mmHg 78%
    01:00 +9°C° 0 mm 1 mps 714 mmHg 76%
    02:00 +9°C° 0 mm 1 mps 714 mmHg 74%
    03:00 +9°C° 0 mm 1 mps 714 mmHg 73%
    04:00 +10°C° 0 mm 1 mps 714 mmHg 73%
    05:00 +10°C° 0 mm 1 mps 714 mmHg 73%
    06:00 +10°C° 0 mm 1 mps 714 mmHg 72%
    07:00 +11°C° 0 mm 1 mps 715 mmHg 68%
    08:00 +13°C° 0 mm 1 mps 715 mmHg 63%
    09:00 +14°C° 0 mm 2 mps 715 mmHg 58%
    10:00 +14°C° 0 mm 1 mps 715 mmHg 56%
    11:00 +15°C° 0 mm 1 mps 715 mmHg 55%
    12:00 +15°C° 0 mm 1 mps 715 mmHg 53%
    13:00 +15°C° 0.1 mm 2 mps 714 mmHg 57%
    14:00 +15°C° 0.1 mm 2 mps 714 mmHg 62%
    15:00 +14°C° 0.1 mm 3 mps 714 mmHg 66%
    16:00 +13°C° 0 mm 3 mps 714 mmHg 71%
    17:00 +11°C° 0 mm 3 mps 714 mmHg 76%
    18:00 +10°C° 0 mm 2 mps 713 mmHg 81%
    19:00 +10°C° 0 mm 2 mps 714 mmHg 81%
    20:00 +10°C° 0 mm 2 mps 714 mmHg 81%
    21:00 +10°C° 0 mm 1 mps 715 mmHg 82%
    22:00 +10°C° 0.5 mm 1 mps 715 mmHg 85%
    23:00 +10°C° 0.5 mm 1 mps 714 mmHg 88%
    Show more